Flag for Australia Weather past 2 weeks in Wagga Wagga, New South Wales, Australia

Now
81 °F

Passing clouds.


Feels Like: 80 °F
Forecast: 58 / 89 °F
Wind: 6 mph from Northeast

Location: Wagga Airport

Current Time: Oct 25, 2014 at 12:07:24 PM

Latest Report: Oct 25, 2014 at 11:00 AM


Visibility: N/A

Pressure: 30.01 "Hg

Humidity: 34%

Dew point: 50 °F

Location of Wagga WaggaLocation

Historic Weather in Wagga Wagga — Graph

°F

Wagga Wagga temperature yesterday

Maximum temperature yesterday: 91 °F (at 1:00 PM)
Minimum temperature yesterday: 66 °F (at 11:00 PM)
Average temperature yesterday: 78 °F

Past Weeks' High & Low Weather Summary

 TemperatureHumidityPressure
High93 °F (Oct 23, 4:00 PM)100% (Oct 17, 5:56 AM)30.39 "Hg (Oct 17, 5:56 AM)
Low37 °F (Oct 17, 4:00 AM)11% (Oct 11, 4:00 PM)29.68 "Hg (Oct 13, 4:00 AM)
Average63 °F54%30.06 "Hg
* Reported Oct 10 11:00 AM — Oct 25 11:00 AM, Wagga Wagga, Weather by CustomWeather, © 2014

Note: Actual official high and low records may vary slightly from our data, if they occured in-between our weather recording intervals... More about our weather records

Advertising

Wagga Wagga weather history for previous 24 hours

 ConditionsComfort  
Time TempWeatherWind HumidityBarometerVisibility
11:00 AM
Oct 25
81 °FPassing clouds.6 mph34%30.01 "HgN/A
10:00 AM73 °FSunny.6 mph44%30.01 "Hg10 mi
9:00 AM66 °FSunny.7 mph56%30.01 "Hg10 mi
8:00 AM63 °FSunny.2 mph68%30.01 "Hg10 mi
7:00 AM57 °FSunny.6 mph72%29.98 "Hg10 mi
6:00 AM52 °FClear.2 mph82%29.98 "Hg10 mi
5:00 AM54 °FPassing clouds.No wind77%29.95 "HgN/A
4:00 AM54 °FClear.No wind82%29.95 "HgN/A
3:00 AM55 °FClear.No wind77%29.95 "HgN/A
2:00 AM57 °FClear.No wind72%29.95 "HgN/A
1:00 AM63 °FClear.3 mph64%29.95 "HgN/A
12:00 AM64 °FClear.5 mph60%29.95 "HgN/A
11:00 PM
Oct 24
66 °FClear.No wind60%29.95 "Hg10 mi
10:00 PM68 °FClear.No wind56%29.95 "Hg10 mi
9:00 PM72 °FClear.6 mph47%29.92 "Hg10 mi
8:00 PM75 °FClear.7 mph36%29.89 "Hg10 mi
7:00 PM84 °FSunny.15 mph25%29.86 "Hg10 mi
6:00 PM88 °FSunny.14 mph18%29.83 "Hg10 mi
5:00 PM88 °FSunny.15 mph18%29.83 "Hg10 mi
4:00 PM90 °FSunny.17 mph16%29.83 "Hg10 mi
3:00 PM91 °FSunny.14 mph16%29.83 "Hg10 mi
2:00 PM91 °FSunny.13 mph18%29.86 "HgN/A
1:00 PM91 °FSunny.12 mph20%29.89 "Hg10 mi
12:00 PM88 °FPassing clouds.9 mph22%29.92 "HgN/A
Weather by CustomWeather, © 2014

See weather overviewHow to use our weather pages